Terug naar catalogus

STARLINK-32391

ActiefCommunicatieVLEO
NORAD 61855·PAYLOAD·🇺🇸 United States

Gelanceerd Nov 7, 2024 vanaf Cape Canaveral Space Force Station

Loading…

Volgende Passages (komende 24 uur)

TLE

VersSource: CelesTrak SupGP

Epoch: Sep 14, 2026, 22:57 UTC

1 61855C 24202L   26257.95673611  .00027967  00000+0  10132-2 0  2571
2 61855  42.9993 248.9351 0001200 260.3747 168.9407 15.27558046    16

Volg STARLINK-32391 in realtime met AllMySat

Download on the App Store